Погода в Ятманкине

Россия / Чувашская Республика     55°55′39″N   46°49′59″E
темп.,
°C
ветер,
м/с
пор.,
м/с
влажн.,
%
обл.,
%
осадки,
мм/ч
давл.,
гПа
погр.,
м
21 апреля, ср
ср2100:00+4вюв81747100 0.0 1023640
03:00+4юв91949100 0.0 1021721
06:00+2юв112167100 0.7 1020816
09:00+1юв112189100 3.8 1019795
12:00+3юв111874100 0.1 1018789
15:00+3юв10177986 0.4 1017772
18:00+2ююв101788100 0.0 1017657
21:00+3ююв91793100 0.3 1016587
22 апреля, чт
чт2200:00+4ю81695100 0.7 1016735
03:00+5ююз61189100 0.7 1019562
06:00+4ююв5990100 0.0 1020259
09:00+7ююв61187100 0.0 1020512
12:00+9ю81180100 0.1 1020929
15:00+10ююз7107435 0.4 10201075
18:00+9з357339 0.3 1021151
21:00+6юз11815 0.3 102310
23 апреля, пт
пт2300:00+4ю22842 0.0 102313
03:00+4ююв33860 0.0 102321
06:00+5ю34845 0.0 102478
09:00+11ююв34645 0.0 1023475
12:00+14ююв345248 0.0 10231602
15:00+13юв4661100 0.2 1022266
18:00+12юв59705 0.0 1022312
21:00+7юв410865 0.1 1021197
24 апреля, сб
сб2400:00+6юв499213 0.0 1020158
03:00+5вюв489495 0.0 1019159
06:00+5в4892100 0.0 1018250
09:00+9вюв577463 0.0 1016643
12:00+11вюв5665100 0.0 10131226
15:00+10вюв567320 0.0 1012698
18:00+9юв6107899 0.0 1011585
21:00+7юв7138799 0.0 1009393
25 апреля, вс
вс2500:00+6юв61392100 0.1 1006466
03:00+5зюз71184100 3.4 1007957
06:00+4зюз6107596 0.0 10081074
09:00+7зюз79649 0.1 10091349
12:00+10зюз81143100 0.1 10092535
15:00+11зюз8113896 0.1 10092729
18:00+9зюз475064 0.0 1010290
21:00+5юз346541 0.0 101257